Vertical_Velocity
1 1 2 4 2 1 -5 -6 10 9 7 3 2 4 7 2 5 7 6 4 10 -20
3 3 -0 4 6 5 5 0 1 7 -1 4 5 7 7 4 2 6 6 3 -3 -21
-2 -3 1 2 -0 -0 6 7 7 5 6 5 10 4 5 3 4 3 3 14 -15 13
2 -1 -1 1 2 1 3 3 4 6 5 5 6 8 4 5 7 5 6 -14 23 1
-1 -2 -1 3 1 4 3 1 -1 1 2 6 -0 2 3 4 4 -2 16 -9 16 5
-2 -1 -5 3 3 0 -1 2 7 3 -0 2 1 8 8 11 4 1 5 5 -8 2
-10 5 -3 2 -1 0 -1 1 3 4 4 6 10 8 6 3 0 9 1 0 -4 -4
-11 -5 5 1 -0 1 0 4 4 6 5 0 -0 2 3 -3 2 0 4 -3 -3 0
2 4 4 3 4 2 5 6 5 0 3 5 -0 3 -0 0 -4 1 -4 -4 -4 0
4 6 4 -0 3 -0 -2 2 1 4 5 -1 1 5 2 -2 -2 1 -0 -9 5 -3
4 6 1 2 2 -0 3 4 2 1 4 3 -2 8 -1 3 -2 -1 -2 2 1 -2
2 4 3 2 -0 -1 7 9 -0 5 1 1 4 1 -11 -7 5 -11 4 -1 -2 -2
2 -1 4 0 1 1 -2 -4 1 2 3 0 -5 11 -2 -0 -3 -0 1 -4 -3 0
2 5 7 -2 -0 2 -2 -0 -3 5 5 -3 -2 -3 4 4 -5 -3 -1 -0 -0 0
Height
1447 1447 1448 1448 1449 1451 1454 1458 1462 1466 1469 1473 1476 1479 1483 1487 1490 1493 1495 1496 1499 1506
1440 1441 1441 1441 1442 1443 1445 1448 1452 1456 1460 1463 1467 1471 1475 1479 1483 1486 1488 1490 1492 1489
1434 1434 1434 1434 1435 1436 1438 1440 1443 1446 1450 1455 1459 1463 1468 1473 1477 1480 1483 1484 1485 1489
1428 1427 1427 1427 1428 1429 1431 1434 1436 1439 1442 1446 1451 1456 1462 1467 1471 1473 1476 1482 1482 1483
1422 1421 1420 1421 1422 1423 1424 1427 1430 1434 1437 1442 1447 1453 1457 1461 1465 1470 1472 1474 1483 1479
1417 1416 1415 1416 1416 1418 1420 1422 1424 1427 1433 1438 1443 1447 1452 1457 1460 1465 1471 1473 1476 1476
1413 1410 1412 1412 1413 1415 1417 1419 1421 1424 1428 1434 1439 1444 1449 1455 1460 1464 1466 1468 1468 1471
1410 1410 1410 1409 1410 1412 1415 1417 1419 1422 1427 1432 1439 1443 1448 1452 1457 1462 1462 1466 1468 1470
1408 1408 1406 1406 1408 1411 1415 1416 1418 1423 1429 1433 1438 1442 1447 1451 1455 1459 1460 1462 1466 1466
1409 1408 1406 1407 1409 1412 1416 1419 1422 1426 1430 1435 1441 1445 1450 1452 1454 1458 1460 1462 1460 1462
1411 1409 1409 1411 1412 1415 1418 1422 1426 1431 1434 1438 1442 1446 1449 1451 1450 1458 1455 1457 1457 1459
1412 1412 1412 1414 1415 1418 1422 1426 1430 1434 1438 1441 1443 1445 1449 1450 1450 1453 1456 1455 1457 1457
1418 1418 1418 1418 1422 1425 1428 1433 1436 1439 1441 1441 1443 1444 1448 1451 1450 1454 1454 1454 1455 1454
1424 1424 1425 1426 1429 1431 1434 1437 1440 1440 1441 1443 1445 1447 1449 1449 1449 1451 1452 1453 1452 1449